Monticello Municipal Ellis Field
KLLQ : now visible

Airfield :











YOU CAN JOIN US ON...

 
LOGIN :

Register | Disclaimer

   EN    FR    IT 

 









Legend :    VFR   Marginal VFR   IFR   Intensive IFR   Very Intensive IFR
Visi :
Ceiling :
>= 8 km
>= 3000ft
5 to 8 km
1000 to 3000 ft
1500m to 5 km
500 to 1000 ft
800 to 1500m
200 to 500 ft
< 800m
< 200 ft
Symbols :   Thunderstorms  Fog  Heavy snow  Heavy precipitations  Wind > 20 kt







- Airport Elevation : 270 ft


KLLQ - Monticello Municipal Ellis Field

CURRENT METAR :
  • 191353Z AUTO 25005KT 10SM CLR 28/24 A3006 RMK AO2 SLP175 T02780239

EXPIRED METARs :
  • 191253Z AUTO 24006KT 10SM CLR 27/23 A3004 RMK AO2 SLP170 T02670233
  • 191153Z AUTO 22006KT 10SM CLR 26/23 A3003 RMK AO2 SLP164 T02610233 10272 20256 53017

TAF KLLQ
Valid from the 19 at 12:00 until the 20 at 12:00 UTC


191120Z 1912/2012 VRB03KT P6SM SKC
FM191400 21007KT P6SM FEW040 SCT250
KZME FIR / North America



MET'MAP, your aeronautical weather chart ! - Copyright ORBIFLY December 2007 - Disclaimer

ORBIFLY MET'MAP TEAM :

Programming & Development : Alexandra Zaïnal
Concept & Development : Baudouin d'Aumeries
Co-Development & Prog : Marc-Olivier Méhu
Technical & hardware support : Manuel Goepfert

Contact : metmap@orbifly.com




SOURCES & CREDITS :

   NOAA       Earth
Advisory